Volver al catálogo

STARLINK-30588

ActivoComunicacionesVLEO
NORAD 58062·PAYLOAD·🇺🇸 United States

Lanzado Oct 13, 2023 desde Cape Canaveral Space Force Station

Loading…

Próximos Pases (próximas 24 horas)

TLE

ActualizadoSource: CelesTrak SupGP

Época: Sep 14, 2026, 21:15 UTC

1 58062C 23158M   26257.88590278  .00057754  00000+0  20923-2 0  2571
2 58062  43.0012  38.5385 0001623 276.7505 147.1441 15.27542231    14

Sigue STARLINK-30588 en tiempo real con AllMySat

Download on the App Store